| time (UTC) | temp C | wind direction | speed KPH | gust KPH | rain 1hr cm | rain 24hr cm | rain mn cm | humidity % | barometer mb |
| 20260509224531 | 22 | 338 | 4.8 | 11.3 | 0.00 | 0.00 | 0.00 | 42 | 1019.3 |
| 20260509223034 | 22 | 299 | 6.4 | 12.9 | 0.00 | 0.00 | 0.00 | 43 | 1019.6 |
| 20260509221607 | 22 | 297 | 6.4 | 17.7 | 0.00 | 0.00 | 0.00 | 45 | 1019.8 |
| 20260509220037 | 22 | 314 | 6.4 | 16.1 | 0.00 | 0.00 | 0.00 | 46 | 1019.9 |
| 20260509214528 | 22 | 310 | 6.4 | 14.5 | 0.00 | 0.00 | 0.00 | 47 | 1020.0 |
| 20260509213029 | 21 | 302 | 6.4 | 20.9 | 0.00 | 0.00 | 0.00 | 49 | 1020.2 |
| 20260509211532 | 21 | 325 | 6.4 | 14.5 | 0.00 | 0.00 | 0.00 | 49 | 1020.3 |
| 20260509210032 | 21 | 319 | 4.8 | 12.9 | 0.00 | 0.00 | 0.00 | 49 | 1020.5 |
| 20260509203030 | 21 | 299 | 6.4 | 16.1 | 0.00 | 0.00 | 0.00 | 51 | 1020.7 |
| 20260509201530 | 21 | 327 | 6.4 | 16.1 | 0.00 | 0.00 | 0.00 | 51 | 1020.9 |
| 20260509200031 | 20 | 318 | 6.4 | 14.5 | 0.00 | 0.00 | 0.00 | 51 | 1021.1 |
| 20260509194533 | 20 | 321 | 6.4 | 12.9 | 0.00 | 0.00 | 0.00 | 50 | 1021.2 |
| 20260509193031 | 20 | 298 | 4.8 | 17.7 | 0.00 | 0.00 | 0.00 | 50 | 1021.3 |
| 20260509191534 | 19 | 330 | 4.8 | 12.9 | 0.00 | 0.00 | 0.00 | 50 | 1021.4 |
| 20260509190107 | 19 | 326 | 6.4 | 16.1 | 0.00 | 0.00 | 0.00 | 51 | 1021.6 |
| 20260509184610 | 18 | 304 | 4.8 | 11.3 | 0.00 | 0.00 | 0.00 | 52 | 1021.8 |
| 20260509183029 | 18 | 348 | 6.4 | 14.5 | 0.00 | 0.00 | 0.00 | 51 | 1021.9 |
| 20260509181652 | 17 | 334 | 6.4 | 12.9 | 0.00 | 0.00 | 0.00 | 50 | 1022.0 |
| 20260509174530 | 17 | 299 | 4.8 | 12.9 | 0.00 | 0.00 | 0.00 | 51 | 1021.9 |
| 20260509171531 | 16 | 345 | 6.4 | 12.9 | 0.00 | 0.00 | 0.00 | 50 | 1022.1 |
| 20260509170106 | 16 | 316 | 6.4 | 12.9 | 0.00 | 0.00 | 0.00 | 49 | 1022.2 |
| 20260509164607 | 15 | 341 | 6.4 | 11.3 | 0.00 | 0.00 | 0.00 | 49 | 1022.2 |
| 20260509163031 | 16 | 339 | 6.4 | 11.3 | 0.00 | 0.00 | 0.00 | 49 | 1022.2 |
| 20260509161533 | 15 | 336 | 4.8 | 8.0 | 0.00 | 0.00 | 0.00 | 50 | 1022.2 |
| 20260509160035 | 14 | 350 | 1.6 | 6.4 | 0.00 | 0.00 | 0.00 | 52 | 1022.3 |
| 20260509154529 | 13 | 40 | 4.8 | 9.7 | 0.00 | 0.00 | 0.00 | 52 | 1022.5 |
| 20260509153032 | 14 | 26 | 6.4 | 9.7 | 0.00 | 0.00 | 0.00 | 52 | 1022.5 |
| 20260509151535 | 13 | 49 | 0.0 | 6.4 | 0.00 | 0.00 | 0.00 | 53 | 1022.4 |
| 20260509150035 | 13 | 101 | 3.2 | 6.4 | 0.00 | 0.00 | 0.00 | 56 | 1022.3 |
| 20260509144528 | 12 | 139 | 4.8 | 8.0 | 0.00 | 0.00 | 0.00 | 60 | 1022.4 |
| 20260509143107 | 11 | 156 | 6.4 | 11.3 | 0.00 | 0.00 | 0.00 | 62 | 1022.4 |
| 20260509141652 | 10 | 145 | 6.4 | 11.3 | 0.00 | 0.00 | 0.00 | 66 | 1022.3 |
| 20260509140035 | 8 | 154 | 8.0 | 12.9 | 0.00 | 0.00 | 0.00 | 70 | 1022.3 |
| 20260509134528 | 6 | 149 | 8.0 | 14.5 | 0.00 | 0.00 | 0.00 | 72 | 1022.3 |
| 20260509133029 | 6 | 138 | 9.7 | 12.9 | 0.00 | 0.00 | 0.00 | 72 | 1022.2 |
| 20260509131535 | 6 | 154 | 9.7 | 16.1 | 0.00 | 0.00 | 0.00 | 73 | 1022.2 |
| 20260509130107 | 6 | 151 | 8.0 | 16.1 | 0.00 | 0.00 | 0.00 | 73 | 1021.9 |
| 20260509124530 | 6 | 159 | 9.7 | 16.1 | 0.00 | 0.00 | 0.00 | 73 | 1021.8 |
| 20260509123033 | 6 | 144 | 9.7 | 14.5 | 0.00 | 0.00 | 0.00 | 73 | 1021.8 |
| 20260509121532 | 7 | 159 | 8.0 | 14.5 | 0.00 | 0.00 | 0.00 | 73 | 1021.9 |
| 20260509120106 | 7 | 163 | 9.7 | 17.7 | 0.00 | 0.00 | 0.00 | 73 | 1021.8 |
| 20260509114532 | 7 | 154 | 9.7 | 16.1 | 0.00 | 0.00 | 0.00 | 73 | 1021.7 |
| 20260509113035 | 7 | 150 | 9.7 | 19.3 | 0.00 | 0.00 | 0.00 | 74 | 1021.8 |
| 20260509110037 | 7 | 137 | 8.0 | 19.3 | 0.00 | 0.00 | 0.00 | 75 | 1021.9 |
| 20260509103036 | 7 | 149 | 9.7 | 16.1 | 0.00 | 0.00 | 0.00 | 77 | 1022.0 |
| 20260509101535 | 7 | 146 | 9.7 | 17.7 | 0.00 | 0.00 | 0.00 | 78 | 1022.1 |
| 20260509100036 | 6 | 155 | 9.7 | 17.7 | 0.00 | 0.00 | 0.00 | 78 | 1022.2 |
| 20260509094534 | 6 | 156 | 8.0 | 16.1 | 0.00 | 0.00 | 0.00 | 79 | 1022.2 |
| 20260509093149 | 6 | 152 | 9.7 | 14.5 | 0.00 | 0.00 | 0.00 | 78 | 1022.3 |
| 20260509090035 | 7 | 142 | 9.7 | 16.1 | 0.00 | 0.00 | 0.00 | 78 | 1022.5 |
| 20260509084650 | 7 | 141 | 4.8 | 12.9 | 0.00 | 0.00 | 0.00 | 78 | 1022.8 |
| 20260509083038 | 7 | 134 | 9.7 | 17.7 | 0.00 | 0.00 | 0.00 | 78 | 1022.9 |
| 20260509081532 | 7 | 138 | 9.7 | 17.7 | 0.00 | 0.00 | 0.00 | 79 | 1023.1 |
| 20260509080035 | 7 | 137 | 6.4 | 14.5 | 0.00 | 0.00 | 0.00 | 79 | 1023.2 |
| 20260509074532 | 6 | 135 | 6.4 | 11.3 | 0.00 | 0.00 | 0.00 | 79 | 1023.4 |
| 20260509073033 | 6 | 150 | 6.4 | 14.5 | 0.00 | 0.00 | 0.00 | 79 | 1023.5 |
| 20260509071531 | 6 | 170 | 6.4 | 12.9 | 0.00 | 0.00 | 0.00 | 78 | 1023.5 |
| 20260509070032 | 6 | 181 | 6.4 | 9.7 | 0.00 | 0.00 | 0.00 | 77 | 1023.5 |
| 20260509064531 | 7 | 181 | 6.4 | 8.0 | 0.00 | 0.00 | 0.00 | 75 | 1023.6 |
| 20260509063031 | 7 | 165 | 3.2 | 6.4 | 0.00 | 0.00 | 0.00 | 73 | 1023.6 |
| 20260509061652 | 9 | 104 | 1.6 | 6.4 | 0.00 | 0.00 | 0.00 | 71 | 1023.6 |
| 20260509061642 | 10 | 72 | 4.8 | 8.0 | 0.00 | 0.00 | 0.00 | 71 | 1023.6 |
| 20260509051530 | 10 | 56 | 4.8 | 11.3 | 0.00 | 0.00 | 0.00 | 71 | 1023.4 |
| 20260509050035 | 10 | 72 | 3.2 | 8.0 | 0.00 | 0.00 | 0.00 | 69 | 1023.3 |
| 20260509044536 | 10 | 15 | 4.8 | 12.9 | 0.00 | 0.00 | 0.00 | 68 | 1023.1 |
| 20260509043036 | 10 | 325 | 6.4 | 11.3 | 0.00 | 0.00 | 0.00 | 66 | 1023.1 |
| 20260509041643 | 11 | 303 | 4.8 | 11.3 | 0.00 | 0.00 | 0.00 | 64 | 1022.9 |
| 20260509040028 | 11 | 281 | 6.4 | 17.7 | 0.00 | 0.00 | 0.00 | 64 | 1022.6 |
| 20260509034530 | 11 | 280 | 9.7 | 24.1 | 0.00 | 0.00 | 0.00 | 62 | 1022.4 |
| 20260509033032 | 12 | 275 | 9.7 | 20.9 | 0.00 | 0.00 | 0.00 | 61 | 1022.2 |
| 20260509031536 | 12 | 272 | 9.7 | 19.3 | 0.00 | 0.00 | 0.00 | 59 | 1022.1 |
| 20260509030029 | 12 | 275 | 9.7 | 25.7 | 0.00 | 0.00 | 0.00 | 57 | 1021.9 |
| 20260509024643 | 13 | 268 | 11.3 | 29.0 | 0.00 | 0.00 | 0.00 | 54 | 1021.8 |
| 20260509023051 | 14 | 262 | 11.3 | 29.0 | 0.00 | 0.00 | 0.00 | 51 | 1021.6 |
| 20260509021532 | 14 | 257 | 11.3 | 29.0 | 0.00 | 0.00 | 0.00 | 48 | 1021.6 |
| 20260509014529 | 16 | 235 | 11.3 | 32.2 | 0.00 | 0.00 | 0.00 | 45 | 1021.5 |
| 20260509013032 | 16 | 236 | 14.5 | 32.2 | 0.00 | 0.00 | 0.00 | 43 | 1021.4 |
| 20260509011531 | 16 | 239 | 14.5 | 35.4 | 0.00 | 0.00 | 0.00 | 41 | 1021.4 |
| 20260509010035 | 17 | 226 | 14.5 | 35.4 | 0.00 | 0.00 | 0.00 | 40 | 1021.4 |
| 20260509004530 | 17 | 236 | 11.3 | 32.2 | 0.00 | 0.00 | 0.00 | 39 | 1021.4 |
| 20260509003032 | 17 | 223 | 12.9 | 30.6 | 0.00 | 0.00 | 0.00 | 38 | 1021.4 |
| 20260509001536 | 18 | 270 | 14.5 | 32.2 | 0.00 | 0.00 | 0.00 | 36 | 1021.1 |
| 20260508234535 | 18 | 265 | 14.5 | 38.6 | 0.00 | 0.00 | 0.00 | 35 | 1020.8 |
| 20260508233036 | 19 | 261 | 9.7 | 25.7 | 0.00 | 0.00 | 0.00 | 34 | 1020.9 |
| 20260508231537 | 19 | 262 | 9.7 | 29.0 | 0.00 | 0.00 | 0.00 | 32 | 1020.8 |
| 20260508230031 | 19 | 263 | 14.5 | 32.2 | 0.00 | 0.00 | 0.00 | 31 | 1020.6 |